STARLINK-30398, 57815

Orbit data source: Space-Track

STARLINK-30398, 57815 is a payload satellite owned by SpaceX/Seattle (US) in LEO that was launched on Sat, 09 Sep 2023 UTC via an FALCON 9 launch vehicle from the Air Force Eastern Test Range (AFETR). Payload-class satellites include a variety of spacecraft equipped with specific instruments for various scientific and technological missions. These include communications satellites like Starlink; space stations such as the ISS; scientific satellites like the Hubble; Earth observation satellites from companies like Planet Labs, Umbra, and HawkEye 360; GPS; miniature CubeSats for education and research; and military/defense satellites.

Loading next visibility...
Identifier
57815, 2023-138H
Orbit
LEO
Country
Flag of USUS
Related business
Manufacturer
SpaceX/Seattle
Mission
Operational Commercial Communications
Bus & Motor
STARLINK V2M, Unknown motor
Mass
730 kg wet, ~700 kg dry
Launch date (UTC)
2023-09-09 (3 years ago)
Launch vehicle
FALCON 9
Launch site
Air Force Eastern Test Range (AFETR)
Object type
Payload
Rocket body
Debris
Shape & HBR
Box + 2 Pan, 17.7 m
Radar Cross Section
33.884 m², Large (>1 m²)

Expand to show TLE details & history
Last TLE update: 2 days ago

TLE from 2 days ago
0 STARLINK-30398
1 57815U 23138H   26171.00374728  .00000565  00000-0  30070-4 0  9991
2 57815  43.0047  16.5643 0001735 268.2965  91.7688 15.27586032154283
Epoch: 2026-06-20T00:05Z
TLE epoch observation values (Epoch: 2026-06-20T00:05:23.764Z)
Latitude
Longitude
106.99068°
Altitude
482.844 km
Speed
7.626 km/s
True Right ascension
01h 06m 15s
True Declination
0° 00' 00"
Sunlit
Object was in daylight at epoch
Visualization orbit readout
Latitude
Unknown
Longitude
Unknown
Altitude
Unknown
Speed
Unknown
Apparent Right ascension
Unknown
Apparent Declination
Unknown
Sunlit
N/A
Visualization observer readout
Local Sidereal Time
21:34:39
Azimuth
Unknown
Elevation
Unknown
Doppler factor
Unknown
Orbital elements
Apogee altitude
486.166 km
Perigee altitude
483.785 km
Semi-major axis
6,863.112 km
Eccentricity
0.00017
Inclination
43.0047°
RAAN
16.5643°
Arg. of periapsis
268.2965°
True anomaly
91.78867°
Mean anomaly
91.7688°
Eccentric anomaly
91.77874°
Mean motion
3.81735 °/min
Orbital period
94.31 mins
BSTAR
0.00003007
Loading maneuver chart data...
Computing Atmospheric mass density...
Loading historical data...
Loading historical data...
Loading historical data...
Loading historical data...
Loading historical data...
Loading historical data...
Loading historical data...

Documentation

Showing up to 5 results
|